Stations météo

réclame
Mon MeteoGroup
La Coruna, Espagne (8001): Température de l'air & dewpoint: 14.10.2018 21:00:00 - 20.10.2018 21:00:00 (CEST)La Coruna, Espagne (8001): Vitesse du vent: 14.10.2018 21:00:00 - 20.10.2018 21:00:00 (CEST)La Coruna, Espagne (8001): Direction du vent: 14.10.2018 21:00:00 - 20.10.2018 21:00:00 (CEST)La Coruna, Espagne (8001): reduced air pressure: 14.10.2018 21:00:00 - 20.10.2018 21:00:00 (CEST)La Coruna, Espagne (8001): visibility: 14.10.2018 21:00:00 - 20.10.2018 21:00:00 (CEST)La Coruna, Espagne (8001): Quantités de précipitations: 14.10.2018 21:00:00 - 20.10.2018 21:00:00 (CEST)
Date & Time tt [°C] td [°C] ff [km/h] ff [knt] dd ppp [hPa] vv [km] rr [mm]
20.10.2018 21:00:00 17,3 13,4 18 10 NE 1021,9 12 0,0
20.10.2018 20:00:00 17,8 13,3 22 12 ENE 1021,8 13 -
20.10.2018 19:00:00 18,8 13,0 29 16 NE 1020,9 15 0,0
20.10.2018 18:00:00 19,7 12,9 24 13 ENE 1020,5 17 0,0
20.10.2018 17:00:00 20,8 12,5 24 13 ENE 1020,7 19 -
20.10.2018 16:00:00 21,2 12,9 22 12 NE 1021,4 17 0,0
20.10.2018 15:00:00 21,3 13,7 13 7 NNE 1022,2 18 0,0
20.10.2018 14:00:00 20,8 13,5 16 9 NE 1023,0 20 -
20.10.2018 13:00:00 19,9 13,6 18 10 NE 1023,6 16 0,0
20.10.2018 12:00:00 17,6 14,1 15 8 N 1024,1 10 0,0
20.10.2018 11:00:00 17,1 14,0 13 7 NNE 1023,6 18 -
20.10.2018 10:00:00 16,1 13,0 16 9 NE 1022,9 10 0,0
20.10.2018 09:00:00 15,3 13,0 13 7 NNE 1022,3 9 0,0
20.10.2018 08:00:00 15,6 13,1 11 6 NE 1021,9 12 -
20.10.2018 07:00:00 15,0 13,4 13 7 NNE 1021,7 8 0,0
20.10.2018 06:00:00 15,5 13,5 11 6 NNE 1021,4 7 0,0
20.10.2018 05:00:00 16,0 13,1 11 6 NE 1021,6 12 -
20.10.2018 04:00:00 15,8 13,5 5 3 NE 1022,0 9 0,0
20.10.2018 03:00:00 15,7 13,4 11 6 NNE 1022,2 9 0,0
20.10.2018 02:00:00 15,7 13,7 13 7 NNE 1022,3 12 -
20.10.2018 01:00:00 16,2 13,9 13 7 NNE 1022,3 9 0,0
20.10.2018 00:00:00 16,8 13,7 15 8 ENE 1021,9 11 0,0
19.10.2018 23:00:00 17,0 13,9 21 11 ENE 1021,7 15 -
19.10.2018 22:00:00 16,7 14,0 18 10 NE 1021,3 12 0,0
19.10.2018 21:00:00 17,2 14,1 13 7 NE 1021,2 12 0,0
19.10.2018 20:00:00 17,4 14,3 18 10 NE 1020,6 12 -
19.10.2018 19:00:00 18,6 13,9 22 12 NE 1019,6 16 0,0
19.10.2018 18:00:00 19,2 14,5 26 14 NE 1019,2 17 0,0
19.10.2018 17:00:00 19,8 14,4 24 13 ENE 1019,3 18 -
19.10.2018 16:00:00 19,3 14,3 28 15 ENE 1019,2 17 0,0
19.10.2018 15:00:00 18,4 15,5 13 7 NNE 1019,8 11 0,0
19.10.2018 14:00:00 19,3 15,2 18 10 NNE 1020,3 12 -
19.10.2018 13:00:00 19,5 15,2 21 11 NE 1020,3 18 0,0
19.10.2018 12:00:00 16,7 15,6 15 8 N 1020,7 9 0,0
19.10.2018 11:00:00 15,8 15,6 9 5 NNE 1020,5 7 -
19.10.2018 10:00:00 15,5 15,5 15 8 NNE 1019,7 4,0 0,0
19.10.2018 09:00:00 15,3 15,3 15 8 N 1019,4 4,2 0,0
19.10.2018 08:00:00 15,2 15,2 15 8 N 1019,0 5 -
19.10.2018 07:00:00 15,0 14,7 21 11 N 1018,7 1,8 0,0
19.10.2018 06:00:00 15,2 14,4 8 4 N 1018,4 3,6 0,0
19.10.2018 05:00:00 15,5 14,9 13 7 NNE 1018,6 6 -
19.10.2018 04:00:00 15,6 14,1 13 7 NE 1019,5 9 0,0
19.10.2018 03:00:00 15,3 14,7 4 2 NE 1019,8 4,0 0,0
19.10.2018 02:00:00 15,5 15,0 15 8 N 1019,6 6 -
19.10.2018 01:00:00 15,6 15,1 18 10 NNE 1019,6 3,7 0,0
19.10.2018 00:00:00 15,4 14,9 16 9 NNE 1019,7 4,2 0,0
18.10.2018 23:00:00 15,5 15,0 16 9 N 1019,4 6 -
18.10.2018 22:00:00 15,5 15,0 21 11 NNE 1018,7 4,3 0,0
18.10.2018 21:00:00 15,6 15,1 16 9 N 1018,4 - 0,0
18.10.2018 20:00:00 15,4 14,8 15 8 N 1017,9 - -
18.10.2018 19:00:00 15,6 14,5 21 11 N 1017,9 8 0,0
18.10.2018 18:00:00 15,8 14,5 24 13 N 1017,7 8 0,0
18.10.2018 17:00:00 16,1 14,5 16 9 N 1017,6 7 -
18.10.2018 16:00:00 16,3 14,3 16 9 N 1017,6 8 0,0
18.10.2018 15:00:00 17,1 14,4 16 9 N 1017,8 10 0,0
18.10.2018 14:00:00 16,4 14,1 22 12 NE 1018,3 15 -
18.10.2018 13:00:00 15,7 13,9 18 10 NNE 1018,8 8 0,0
18.10.2018 12:00:00 16,1 13,8 15 8 N 1018,7 9 0,0
18.10.2018 11:00:00 16,3 12,8 15 8 NE 1018,3 20 -
18.10.2018 10:00:00 15,6 12,3 22 12 ENE 1017,6 15 0,0
18.10.2018 09:00:00 15,6 12,7 24 13 NE 1017,1 16 0,0
18.10.2018 08:00:00 15,6 13,3 24 13 NE 1016,4 15 -
18.10.2018 07:00:00 15,1 14,0 16 9 NE 1016,1 10 0,0
18.10.2018 06:00:00 15,0 13,7 11 6 ENE 1015,7 11 0,0
18.10.2018 05:00:00 14,4 13,8 9 5 NNE 1015,7 15 -
18.10.2018 04:00:00 14,2 13,7 9 5 NNE 1015,5 4,5 0,0
18.10.2018 03:00:00 14,4 14,1 8 4 NNW 1015,6 - 0,0
18.10.2018 02:00:00 14,4 14,1 9 5 N 1015,9 20 -
18.10.2018 01:00:00 14,3 13,8 9 5 N 1016,0 6 0,0
18.10.2018 00:00:00 14,2 13,6 13 7 NNE 1016,2 - 0,0
17.10.2018 23:00:00 13,7 13,5 15 8 NE 1016,3 10 -
17.10.2018 22:00:00 13,5 13,2 13 7 NE 1016,2 3,1 1,0
17.10.2018 21:00:00 14,1 13,8 8 4 N 1015,8 3,9 0,6
17.10.2018 20:00:00 14,2 13,4 5 3 N 1015,5 10 -
17.10.2018 19:00:00 14,3 13,8 8 4 NNW 1015,0 11 0,0
17.10.2018 18:00:00 14,1 13,8 8 4 N 1015,3 9 1,0
17.10.2018 17:00:00 13,9 13,6 11 6 NNW 1015,7 7 -
17.10.2018 16:00:00 14,6 14,0 11 6 NW 1016,0 6 1,0
17.10.2018 15:00:00 14,6 13,6 15 8 W 1016,3 3,0 2,0
17.10.2018 14:00:00 15,8 13,3 13 7 W 1016,7 10 -
17.10.2018 13:00:00 15,5 12,6 11 6 W 1017,1 12 0,0
17.10.2018 12:00:00 15,5 12,6 5 3 NNW 1017,3 10 0,0
17.10.2018 11:00:00 14,9 12,4 2 1 ENE 1017,4 5 -
17.10.2018 10:00:00 13,7 11,9 8 4 S 1017,7 10 0,0
17.10.2018 09:00:00 13,3 12,0 9 5 SSE 1017,8 8 0,0
17.10.2018 08:00:00 13,6 12,3 5 3 SE 1018,1 8 -
17.10.2018 07:00:00 13,9 12,6 8 4 E 1018,3 8 0,0
17.10.2018 06:00:00 14,3 12,7 5 3 S 1018,3 10 0,0
17.10.2018 05:00:00 14,7 12,7 5 3 SSE 1018,5 15 -
17.10.2018 04:00:00 15,0 13,2 4 2 E 1018,8 13 0,0
17.10.2018 03:00:00 15,0 13,2 2 1 NW 1019,3 17 0,0
17.10.2018 02:00:00 15,2 13,4 4 2 WNW 1019,6 15 -
17.10.2018 01:00:00 15,2 14,1 2 1 W 1020,0 13 0,0
17.10.2018 00:00:00 15,3 14,3 2 1 N 1020,1 11 0,0
16.10.2018 23:00:00 15,2 14,2 4 2 W 1020,0 20 -
16.10.2018 22:00:00 15,1 14,1 4 2 W 1019,7 10 0,0
16.10.2018 21:00:00 15,4 14,3 4 2 NNW 1019,7 15 0,0
16.10.2018 20:00:00 15,5 14,2 5 3 NW 1019,3 14 -
16.10.2018 19:00:00 15,8 14,5 9 5 WNW 1019,1 15 0,0
16.10.2018 18:00:00 16,5 14,3 9 5 WNW 1018,7 18 0,0
16.10.2018 17:00:00 17,7 14,0 13 7 W 1018,5 20 -
16.10.2018 16:00:00 18,3 13,8 9 5 NNW 1018,2 20 0,0
16.10.2018 15:00:00 18,2 12,6 9 5 NNW 1018,4 19 0,0
16.10.2018 14:00:00 18,9 12,2 5 3 NE 1018,4 20 -
16.10.2018 13:00:00 18,4 11,9 5 3 ENE 1018,3 20 0,0
16.10.2018 12:00:00 17,9 10,8 4 2 E 1018,0 19 0,0
16.10.2018 11:00:00 15,5 10,0 5 3 SSE 1017,6 20 -
16.10.2018 10:00:00 13,4 10,0 4 2 ESE 1017,0 19 0,0
16.10.2018 09:00:00 11,8 10,2 2 1 E 1016,1 15 0,0
16.10.2018 08:00:00 12,4 10,3 5 3 SE 1015,4 10 -
16.10.2018 07:00:00 12,9 10,4 5 3 SE 1014,8 20 0,0
16.10.2018 06:00:00 12,9 10,8 5 3 S 1014,4 20 0,0
16.10.2018 05:00:00 12,6 11,2 4 2 E 1014,0 10 -
16.10.2018 04:00:00 13,4 11,8 4 2 SE 1013,6 20 0,0
16.10.2018 03:00:00 13,9 12,1 8 4 SSE 1013,5 19 0,0
16.10.2018 02:00:00 14,1 12,7 4 2 SE 1013,3 10 -
16.10.2018 01:00:00 14,7 13,2 5 3 SE 1013,0 17 0,0
16.10.2018 00:00:00 15,0 13,4 0 0 N 1012,5 7 0,0
15.10.2018 23:00:00 15,8 13,6 4 2 SE 1011,6 12 -
15.10.2018 22:00:00 16,2 13,5 5 3 ESE 1010,7 16 0,0
15.10.2018 21:00:00 16,5 13,4 4 2 E 1010,1 10 0,0
15.10.2018 20:00:00 17,3 13,4 2 1 WSW 1009,3 11 -
15.10.2018 19:00:00 17,4 13,1 4 2 NW 1008,4 11 0,0
15.10.2018 18:00:00 17,1 13,0 5 3 N 1007,7 11 0,0
15.10.2018 17:00:00 17,9 13,6 9 5 N 1007,1 20 -
15.10.2018 16:00:00 20,1 13,8 9 5 ESE 1006,0 20 0,0
15.10.2018 15:00:00 19,4 14,2 9 5 E 1006,0 20 0,0
15.10.2018 14:00:00 17,3 13,4 13 7 ESE 1005,4 20 -
15.10.2018 13:00:00 16,2 12,6 11 6 SE 1005,2 16 0,0
15.10.2018 12:00:00 15,2 12,0 15 8 SSE 1003,9 20 0,0
15.10.2018 11:00:00 14,1 12,0 18 10 SE 1003,2 15 -
15.10.2018 10:00:00 13,2 11,8 16 9 SE 1002,5 18 0,2
15.10.2018 09:00:00 12,9 11,6 13 7 SE 1001,9 9 2,0
15.10.2018 08:00:00 13,2 11,6 11 6 SE 1002,0 8 -
15.10.2018 07:00:00 13,0 10,9 18 10 SSE 1001,5 19 0,0
15.10.2018 06:00:00 13,3 10,8 26 14 SSE 1001,1 20 0,2
15.10.2018 05:00:00 13,1 10,5 22 12 SSE 1001,4 12 -
15.10.2018 04:00:00 13,2 9,8 18 10 SSE 1002,3 20 0,0
15.10.2018 03:00:00 14,2 9,6 21 11 SSE 1004,6 20 0,0
15.10.2018 02:00:00 14,1 9,3 16 9 SSE 1005,6 12 -
15.10.2018 01:00:00 14,1 9,3 16 9 S 1007,6 17 0,0
15.10.2018 00:00:00 14,3 9,7 16 9 SSE 1009,6 10 0,0
14.10.2018 23:00:00 14,2 9,2 16 9 S 1010,5 12 -
14.10.2018 22:00:00 14,3 8,9 11 6 S 1011,5 18 0,0
14.10.2018 21:00:00 14,3 10,1 9 5 SSE 1011,9 16 0,0

tt = Température de l'air
td = dewpoint
ff = Vitesse du vent
dd = Direction du vent
ppp = reduced air pressure
vv = visibility
rr = Quantités de précipitations

stations d'obs. à proximité